Flag for France Weather past 2 weeks in Nancy, France

Now
88 °F

Passing clouds.


Feels Like: 87 °F
Forecast: 63 / 72 °F
Wind: 13 mph from West

Location: Nancy / Ochey

Current Time: Jul 7, 2015 at 5:46:54 PM

Latest Report: Jul 7, 2015 at 5:00 PM


Visibility: N/A

Pressure: 29.86 "Hg

Humidity: 35%

Dew point: 57 °F

Location of NancyLocation

Historic Weather in Nancy — Graph

°F

Nancy temperature yesterday

Maximum temperature yesterday: 86 °F (at 4:30 PM)
Minimum temperature yesterday: 59 °F (at 4:00 AM)
Average temperature yesterday: 73 °F

Past Weeks' High & Low Weather Summary

 TemperatureHumidityPressure
High100 °F (Jul 4, 5:00 PM)100% (Jun 23, 5:00 AM)30.24 "Hg (Jun 23, 5:00 AM)
Low45 °F (Jun 24, 3:30 AM)21% (Jul 4, 3:30 PM)29.80 "Hg (Jun 22, 6:00 PM)
Average73 °F55%30.11 "Hg
* Reported Jun 22 4:00 PM — Jul 7 4:30 PM, Nancy, Weather by CustomWeather, © 2015

Note: Actual official high and low records may vary slightly from our data, if they occured in-between our weather recording intervals... More about our weather records

Advertising

Nancy weather history for previous 24 hours

 ConditionsComfort  
Time TempWeatherWind HumidityBarometerVisibility
4:30 PM
Tue, Jul 7
91 °FPassing clouds.15 mph26%29.83 "HgN/A
4:00 PM95 °FPassing clouds.17 mph22%29.86 "HgN/A
3:30 PM93 °FPassing clouds.12 mph30%29.86 "HgN/A
3:00 PM93 °FPassing clouds.10 mph32%29.86 "HgN/A
2:30 PM91 °FPassing clouds.12 mph34%29.86 "HgN/A
2:00 PM93 °FPassing clouds.15 mph34%29.89 "HgN/A
1:30 PM93 °FPassing clouds.10 mph32%29.89 "HgN/A
1:00 PM90 °FHot.15 mph36%29.89 "HgN/A
12:30 PM91 °FPassing clouds.15 mph36%29.92 "HgN/A
12:00 PM90 °FPassing clouds.10 mph41%29.92 "HgN/A
11:30 AM90 °FPassing clouds.12 mph38%29.92 "HgN/A
11:00 AM88 °FPassing clouds.9 mph40%29.92 "HgN/A
10:30 AM84 °FPassing clouds.7 mph45%29.92 "HgN/A
10:00 AM81 °FPassing clouds.7 mph51%29.92 "HgN/A
9:30 AM79 °FSunny.7 mph51%29.92 "Hg10 mi
9:00 AM75 °FSunny.7 mph54%29.95 "Hg10 mi
8:30 AM73 °FSunny.No wind57%29.95 "Hg10 mi
8:00 AM70 °FSunny.3 mph64%29.95 "Hg10 mi
7:30 AM68 °FSunny.2 mph69%29.95 "Hg10 mi
7:00 AM66 °FSunny.2 mph68%29.95 "Hg10 mi
6:30 AM66 °FClear.3 mph68%29.98 "Hg10 mi
6:00 AM64 °FClear.3 mph73%29.98 "Hg10 mi
5:30 AM64 °FClear.2 mph73%29.98 "Hg10 mi
5:00 AM64 °FClear.No wind73%29.98 "Hg10 mi
4:30 AM64 °FClear.2 mph68%29.98 "Hg10 mi
4:00 AM66 °FClear.3 mph64%30.01 "Hg10 mi
3:30 AM64 °FClear.No wind68%30.01 "Hg10 mi
3:00 AM66 °FClear.No wind64%30.01 "Hg10 mi
2:30 AM66 °FClear.No wind64%30.01 "Hg10 mi
2:00 AM68 °FClear.6 mph60%30.04 "Hg10 mi
1:30 AM70 °FClear.5 mph53%30.04 "Hg10 mi
1:00 AM72 °FClear.5 mph50%30.04 "Hg10 mi
12:30 AM72 °FClear.5 mph50%30.04 "Hg10 mi
12:00 AM72 °FClear.5 mph50%30.04 "Hg10 mi
11:00 PM
Mon, Jul 6
73 °FClear.5 mph47%30.07 "Hg10 mi
10:30 PM75 °FSunny.3 mph44%30.07 "Hg10 mi
10:00 PM77 °FSunny.3 mph42%30.07 "Hg10 mi
9:30 PM79 °FSunny.3 mph39%30.07 "Hg10 mi
9:00 PM81 °FSunny.5 mph37%30.07 "Hg10 mi
8:30 PM82 °FSunny.3 mph32%30.07 "Hg10 mi
8:00 PM84 °FPassing clouds.6 mph31%30.07 "HgN/A
7:30 PM84 °FPassing clouds.7 mph31%30.07 "HgN/A
7:00 PM86 °FSunny.2 mph31%30.09 "Hg10 mi
6:30 PM86 °FSunny.5 mph27%30.09 "Hg10 mi
6:00 PM86 °FSunny.2 mph27%30.09 "Hg10 mi
5:30 PM86 °FSunny.3 mph27%30.09 "Hg10 mi
5:00 PM86 °FSunny.5 mph27%30.09 "Hg10 mi
Weather by CustomWeather, © 2015

See weather overviewHow to use our weather pages